Location: Jetmore
(38.0845°N, 99.8935°W)
Time: 19:44:16
(UTC+00:00)

Envisat - Pass Details

Date: 19 September 2021
Orbit: 764 x 766 km, 98.2° (Epoch: 15 October)

Event Time Altitude Azimuth Distance (km) Brightness Sun altitude
Rises 11:03:11 0° 24° (NNE) 3,237 6.8 -16.7°
Reaches altitude 10° 11:05:46 10° 35° (NE) 2,306 6.2 -16.2°
Maximum altitude 11:10:13 30° 96° (E) 1,342 5.0 -15.4°
Drops below altitude 10° 11:14:37 10° 157° (SSE) 2,292 5.6 -14.5°
Sets 11:17:10 0° 168° (SSE) 3,213 6.2 -14.0°
